C9S YMEN-YCFS

Flight info

Callsign C9S
Flight time N/A
Altitude 45000
Route ESDAN DCT ML H66 TW/N0461F190 W330 CFS
Aircraft C750/M-SBDE3FGHRWXY/S

Departure

Time 2026-04-20 00:38
Airport Melbourne Essendon Airport (YMEN)

Arrival

Time N/A
Airport Coffs Harbour Airport (YCFS)
Time Latitude Longitude Altitude Speed Heading
2026-04-19 23:44 -37.71949 144.89400 271 ft 0 kts
2026-04-20 00:11 -37.71964 144.89398 271 ft 4 kts 25°
2026-04-20 00:12 -37.71978 144.89380 271 ft 4 kts 96°
2026-04-20 00:12 -37.71973 144.89365 271 ft 0 kts 165°
2026-04-20 00:24 -37.71993 144.89388 271 ft 5 kts 141°
2026-04-20 00:24 -37.72016 144.89389 271 ft 3 kts 198°
2026-04-20 00:25 -37.72040 144.89368 271 ft 8 kts 220°
2026-04-20 00:25 -37.72111 144.89357 271 ft 12 kts 149°
2026-04-20 00:25 -37.72136 144.89452 268 ft 12 kts 90°
2026-04-20 00:25 -37.72128 144.89554 268 ft 11 kts 71°
2026-04-20 00:26 -37.72093 144.89641 268 ft 11 kts 64°
2026-04-20 00:26 -37.72108 144.89720 268 ft 11 kts 144°
2026-04-20 00:26 -37.72185 144.89794 268 ft 17 kts 136°
2026-04-20 00:26 -37.72187 144.89910 272 ft 9 kts 120°
2026-04-20 00:27 -37.72234 144.89930 273 ft 11 kts 179°
2026-04-20 00:27 -37.72351 144.89977 268 ft 24 kts 181°
2026-04-20 00:27 -37.72516 144.89979 268 ft 23 kts 176°
2026-04-20 00:27 -37.72673 144.89988 265 ft 23 kts 179°
2026-04-20 00:28 -37.72827 144.89994 265 ft 22 kts 177°
2026-04-20 00:28 -37.72973 144.90003 265 ft 13 kts 181°
2026-04-20 00:28 -37.73003 144.90003 262 ft 15 kts 179°
2026-04-20 00:28 -37.73114 144.90066 257 ft 18 kts 95°
2026-04-20 00:29 -37.73015 144.90122 257 ft 24 kts
2026-04-20 00:29 -37.72798 144.90121 263 ft 19 kts 26°
2026-04-20 00:29 -37.72776 144.90246 268 ft 14 kts 87°
2026-04-20 00:29 -37.72772 144.90363 268 ft 13 kts 86°
2026-04-20 00:30 -37.72784 144.90474 266 ft 14 kts 102°
2026-04-20 00:30 -37.72804 144.90594 264 ft 14 kts 102°
2026-04-20 00:30 -37.72825 144.90719 263 ft 15 kts 102°
2026-04-20 00:30 -37.72846 144.90851 261 ft 16 kts 100°
2026-04-20 00:31 -37.72866 144.90987 259 ft 16 kts 103°
2026-04-20 00:31 -37.72892 144.91134 255 ft 18 kts 102°
2026-04-20 00:31 -37.72915 144.91275 253 ft 10 kts 105°
2026-04-20 00:31 -37.72946 144.91367 250 ft 11 kts 131°
2026-04-20 00:32 -37.72975 144.91397 249 ft 0 kts 146°
2026-04-20 00:37 -37.72988 144.91408 249 ft 8 kts 148°
2026-04-20 00:37 -37.73072 144.91429 246 ft 15 kts 226°
2026-04-20 00:38 -37.73085 144.91237 250 ft 53 kts 268°
2026-04-20 00:38 -37.73108 144.90297 312 ft 142 kts 269°
2026-04-20 00:38 -37.73030 144.89011 991 ft 148 kts 287°
2026-04-20 00:38 -37.72434 144.87847 1363 ft 167 kts 319°
2026-04-20 00:39 -37.71366 144.87255 1711 ft 172 kts 345°
2026-04-20 00:39 -37.70183 144.86921 2076 ft 178 kts 350°
2026-04-20 00:39 -37.68942 144.86998 2105 ft 178 kts 11°
2026-04-20 00:39 -37.67863 144.87792 1888 ft 177 kts 43°
2026-04-20 00:40 -37.66967 144.88822 2061 ft 181 kts 42°
2026-04-20 00:40 -37.65923 144.89974 2093 ft 217 kts 41°
2026-04-20 00:40 -37.64737 144.91272 2907 ft 220 kts 41°
2026-04-20 00:40 -37.63466 144.92325 3836 ft 222 kts 25°
2026-04-20 00:41 -37.61997 144.93108 4505 ft 241 kts 21°
2026-04-20 00:41 -37.60337 144.93890 5177 ft 267 kts 19°
2026-04-20 00:41 -37.58603 144.94812 6203 ft 273 kts 23°
2026-04-20 00:41 -37.56879 144.95887 7169 ft 281 kts 25°
2026-04-20 00:42 -37.55108 144.96976 8255 ft 286 kts 24°
2026-04-20 00:42 -37.53309 144.98024 9371 ft 292 kts 24°
2026-04-20 00:42 -37.51445 144.99105 10326 ft 301 kts 24°
2026-04-20 00:42 -37.49467 145.00270 10689 ft 327 kts 25°
2026-04-20 00:43 -37.47319 145.01540 10895 ft 355 kts 25°
2026-04-20 00:43 -37.45029 145.02885 11466 ft 365 kts 25°
2026-04-20 00:43 -37.42720 145.04236 12331 ft 368 kts 25°
2026-04-20 00:43 -37.40422 145.05582 12959 ft 369 kts 25°
2026-04-20 00:44 -37.38056 145.06969 13236 ft 379 kts 25°
2026-04-20 00:44 -37.35669 145.08367 14176 ft 379 kts 25°
2026-04-20 00:44 -37.33262 145.09775 14812 ft 385 kts 25°
2026-04-20 00:44 -37.30817 145.11204 15489 ft 390 kts 25°
2026-04-20 00:45 -37.28346 145.12648 16157 ft 395 kts 25°
2026-04-20 00:45 -37.25839 145.14111 16855 ft 400 kts 25°
2026-04-20 00:45 -37.23299 145.15590 17571 ft 405 kts 25°
2026-04-20 00:45 -37.20727 145.17088 18312 ft 410 kts 25°
2026-04-20 00:46 -37.18123 145.18606 19001 ft 416 kts 25°
2026-04-20 00:46 -37.15483 145.20142 19673 ft 421 kts 25°
2026-04-20 00:46 -37.12811 145.21695 20341 ft 426 kts 25°
2026-04-20 00:46 -37.11022 145.22735 20787 ft 430 kts 25°
2026-04-20 00:47 -37.07437 145.25015 21627 ft 436 kts 34°
2026-04-20 00:47 -37.05837 145.26544 22112 ft 437 kts 41°
2026-04-20 00:47 -37.03492 145.28992 22805 ft 442 kts 41°
2026-04-20 00:47 -37.00299 145.32293 23698 ft 449 kts 41°
2026-04-20 00:48 -36.98697 145.33939 24083 ft 452 kts 41°
2026-04-20 00:48 -36.96258 145.36454 24646 ft 456 kts 41°
2026-04-20 00:48 -36.93802 145.38996 25207 ft 460 kts 42°
2026-04-20 00:48 -36.91324 145.41554 25785 ft 464 kts 42°
2026-04-20 00:49 -36.88820 145.44128 26331 ft 468 kts 42°
2026-04-20 00:49 -36.86296 145.46724 26887 ft 472 kts 42°
2026-04-20 00:49 -36.83754 145.49340 27416 ft 476 kts 42°
2026-04-20 00:49 -36.81183 145.51982 27952 ft 480 kts 42°
2026-04-20 00:50 -36.78592 145.54640 28487 ft 485 kts 42°
2026-04-20 00:50 -36.75978 145.57320 29029 ft 489 kts 43°
2026-04-20 00:50 -36.73338 145.60025 29546 ft 493 kts 43°
2026-04-20 00:50 -36.70679 145.62747 30059 ft 497 kts 43°
2026-04-20 00:51 -36.67996 145.65491 30535 ft 501 kts 43°
2026-04-20 00:51 -36.65291 145.68253 30968 ft 505 kts 43°
2026-04-20 00:51 -36.62566 145.71034 31438 ft 507 kts 43°
2026-04-20 00:51 -36.59848 145.73803 32125 ft 504 kts 43°
2026-04-20 00:52 -36.57136 145.76566 32763 ft 503 kts 43°
2026-04-20 00:52 -36.54432 145.79320 33399 ft 502 kts 43°
2026-04-20 00:52 -36.51726 145.82072 34027 ft 502 kts 43°
2026-04-20 00:52 -36.49053 145.84786 34625 ft 501 kts 43°
2026-04-20 00:53 -36.46356 145.87523 35185 ft 500 kts 43°
2026-04-20 00:53 -36.43662 145.90255 35754 ft 500 kts 43°
2026-04-20 00:53 -36.40967 145.92986 36330 ft 500 kts 43°
2026-04-20 00:53 -36.38277 145.95708 36902 ft 499 kts 43°
2026-04-20 00:54 -36.35585 145.98430 37470 ft 499 kts 43°
2026-04-20 00:54 -36.32932 146.01110 38031 ft 499 kts 43°
2026-04-20 00:54 -36.30245 146.03822 38626 ft 497 kts 43°
2026-04-20 00:54 -36.27565 146.06525 39186 ft 497 kts 43°
2026-04-20 00:55 -36.24881 146.09229 39643 ft 497 kts 42°
2026-04-20 00:55 -36.22200 146.11928 40097 ft 497 kts 42°
2026-04-20 00:55 -36.19519 146.14624 40567 ft 496 kts 42°
2026-04-20 00:55 -36.16838 146.17318 41041 ft 496 kts 42°
2026-04-20 00:56 -36.14160 146.20006 41512 ft 495 kts 41°
2026-04-20 00:56 -36.11486 146.22688 41976 ft 495 kts 41°
2026-04-20 00:56 -36.08808 146.25371 42430 ft 495 kts 41°
2026-04-20 00:56 -36.06134 146.28048 42877 ft 495 kts 41°
2026-04-20 00:57 -36.03459 146.30724 43321 ft 495 kts 41°
2026-04-20 00:57 -36.00783 146.33397 43765 ft 495 kts 41°
2026-04-20 00:57 -35.98107 146.36070 44172 ft 495 kts 41°
2026-04-20 00:57 -35.95427 146.38743 44599 ft 495 kts 41°
2026-04-20 00:58 -35.92748 146.41413 45008 ft 495 kts 40°
2026-04-20 00:58 -35.90068 146.44081 45333 ft 495 kts 40°
2026-04-20 00:58 -35.87367 146.46770 45336 ft 504 kts 40°
2026-04-20 00:59 -35.81830 146.52270 45337 ft 518 kts 40°
2026-04-20 00:59 -35.76133 146.57919 45347 ft 532 kts 40°
2026-04-20 01:00 -35.70291 146.63701 45338 ft 546 kts 40°
2026-04-20 01:00 -35.64306 146.69612 45344 ft 557 kts 40°
2026-04-20 01:01 -35.58220 146.75610 45338 ft 562 kts 40°
2026-04-20 01:01 -35.52117 146.81614 45332 ft 562 kts 40°
2026-04-20 01:02 -35.46006 146.87615 45333 ft 563 kts 40°
2026-04-20 01:02 -35.39931 146.93567 45332 ft 563 kts 40°
2026-04-20 01:03 -35.33775 146.99585 45321 ft 555 kts 40°
2026-04-20 01:03 -35.30794 147.02492 45315 ft 539 kts 40°
2026-04-20 01:03 -35.27962 147.05253 45315 ft 519 kts 40°
2026-04-20 01:04 -35.22314 147.10763 45322 ft 523 kts 40°
2026-04-20 01:04 -35.16605 147.16307 45335 ft 524 kts 40°
2026-04-20 01:05 -35.10909 147.21838 45336 ft 525 kts 40°
2026-04-20 01:05 -35.05190 147.27375 45337 ft 525 kts 40°
2026-04-20 01:06 -34.99471 147.32905 45326 ft 525 kts 40°
2026-04-20 01:06 -34.93743 147.38433 45339 ft 525 kts 40°
2026-04-20 01:07 -34.88012 147.43953 45319 ft 525 kts 40°
2026-04-20 01:07 -34.82284 147.49462 45313 ft 525 kts 40°
2026-04-20 01:08 -34.76554 147.54960 45317 ft 525 kts 40°
2026-04-20 01:08 -34.70819 147.60455 45313 ft 525 kts 40°
2026-04-20 01:09 -34.65087 147.65937 45331 ft 525 kts 40°
2026-04-20 01:09 -34.59346 147.71417 45318 ft 525 kts 40°
2026-04-20 01:10 -34.53605 147.76887 45316 ft 525 kts 39°
2026-04-20 01:10 -34.44991 147.85076 45306 ft 525 kts 39°
2026-04-20 01:11 -34.39247 147.90525 45303 ft 524 kts 39°
2026-04-20 01:11 -34.33503 147.95964 45307 ft 524 kts 39°
2026-04-20 01:12 -34.27757 148.01394 45305 ft 524 kts 39°
2026-04-20 01:12 -34.22011 148.06816 45306 ft 524 kts 39°
2026-04-20 01:13 -34.16261 148.12231 45301 ft 523 kts 39°
2026-04-20 01:13 -34.10509 148.17639 45303 ft 524 kts 39°
2026-04-20 01:14 -34.04759 148.23034 45307 ft 523 kts 39°
2026-04-20 01:14 -33.99006 148.28425 45308 ft 524 kts 39°
2026-04-20 01:15 -33.93254 148.33804 45307 ft 524 kts 39°
2026-04-20 01:15 -33.87536 148.39142 45310 ft 524 kts 39°
2026-04-20 01:16 -33.81778 148.44508 45297 ft 523 kts 39°
2026-04-20 01:16 -33.76018 148.49866 45311 ft 524 kts 39°
2026-04-20 01:17 -33.70258 148.55215 45308 ft 523 kts 39°
2026-04-20 01:17 -33.64495 148.60558 45296 ft 523 kts 38°
2026-04-20 01:18 -33.58741 148.65882 45293 ft 522 kts 38°
2026-04-20 01:18 -33.52985 148.71200 45288 ft 522 kts 38°
2026-04-20 01:19 -33.47226 148.76512 45289 ft 522 kts 38°
2026-04-20 01:19 -33.41471 148.81809 45281 ft 522 kts 38°
2026-04-20 01:20 -33.35713 148.87102 45282 ft 522 kts 38°
2026-04-20 01:20 -33.29949 148.92389 45282 ft 522 kts 38°
2026-04-20 01:21 -33.24188 148.97667 45277 ft 522 kts 38°
2026-04-20 01:21 -33.18429 149.02932 45279 ft 522 kts 38°
2026-04-20 01:22 -33.12664 149.08196 45281 ft 521 kts 38°
2026-04-20 01:22 -33.06937 149.13414 45276 ft 522 kts 37°
2026-04-20 01:23 -33.01170 149.18660 45278 ft 522 kts 37°
2026-04-20 01:23 -32.95399 149.23902 45278 ft 522 kts 37°
2026-04-20 01:24 -32.89621 149.29140 45270 ft 523 kts 37°
2026-04-20 01:24 -32.83842 149.34371 45268 ft 522 kts 37°
2026-04-20 01:25 -32.78058 149.39598 45269 ft 522 kts 37°
2026-04-20 01:25 -32.72269 149.44820 45259 ft 523 kts 37°
2026-04-20 01:26 -32.66475 149.50039 45276 ft 522 kts 37°
2026-04-20 01:26 -32.60681 149.55248 45271 ft 522 kts 37°
2026-04-20 01:27 -32.54859 149.60408 45274 ft 523 kts 34°
2026-04-20 01:27 -32.48926 149.65407 45277 ft 523 kts 35°
2026-04-20 01:28 -32.43000 149.70406 45275 ft 523 kts 34°
2026-04-20 01:28 -32.37066 149.75384 45273 ft 523 kts 34°
2026-04-20 01:29 -32.31131 149.80372 45260 ft 523 kts 34°
2026-04-20 01:29 -32.25192 149.85341 45266 ft 523 kts 34°
2026-04-20 01:30 -32.19252 149.90313 45270 ft 523 kts 34°
2026-04-20 01:30 -32.13313 149.95270 45277 ft 523 kts 34°
2026-04-20 01:31 -32.07374 150.00223 45271 ft 523 kts 34°
2026-04-20 01:31 -32.01471 150.05135 45269 ft 523 kts 34°
2026-04-20 01:32 -31.95526 150.10076 45259 ft 523 kts 34°
2026-04-20 01:32 -31.89573 150.15014 45263 ft 524 kts 34°
2026-04-20 01:33 -31.83615 150.19950 45267 ft 523 kts 34°
2026-04-20 01:33 -31.77663 150.24871 45262 ft 523 kts 33°
2026-04-20 01:34 -31.72667 150.28995 45251 ft 524 kts 33°
2026-04-20 01:34 -31.66741 150.33881 45251 ft 524 kts 33°
2026-04-20 01:35 -31.60772 150.38792 45241 ft 524 kts 33°
2026-04-20 01:35 -31.54801 150.43700 45244 ft 525 kts 33°
2026-04-20 01:36 -31.48815 150.48611 45245 ft 525 kts 33°
2026-04-20 01:36 -31.42828 150.53517 45244 ft 525 kts 33°
2026-04-20 01:37 -31.36839 150.58413 45238 ft 525 kts 33°
2026-04-20 01:37 -31.33710 150.60594 45200 ft 511 kts 24°
2026-04-20 01:37 -31.30636 150.62188 43831 ft 463 kts 17°
2026-04-20 01:38 -31.27627 150.63280 40756 ft 447 kts 11°
2026-04-20 01:38 -31.24566 150.63965 36525 ft 450 kts
2026-04-20 01:38 -31.21434 150.64325 32076 ft 452 kts
2026-04-20 01:38 -31.18340 150.64449 28285 ft 434 kts 359°
2026-04-20 01:39 -31.15438 150.64439 25582 ft 399 kts 357°
2026-04-20 01:39 -31.12773 150.64378 23494 ft 378 kts 356°
2026-04-20 01:39 -31.10216 150.64286 21284 ft 368 kts 355°
2026-04-20 01:39 -31.07609 150.64007 19325 ft 382 kts 350°
2026-04-20 01:40 -31.04891 150.63489 18181 ft 398 kts 347°
2026-04-20 01:40 -31.02258 150.62869 17738 ft 372 kts 346°
2026-04-20 01:40 -30.99835 150.62251 17605 ft 342 kts 345°
2026-04-20 01:40 -30.97604 150.61589 17139 ft 323 kts 335°
2026-04-20 01:41 -30.95797 150.60151 16477 ft 310 kts 314°
2026-04-20 01:41 -30.94419 150.58289 15910 ft 298 kts 299°
2026-04-20 01:41 -30.93566 150.56160 15534 ft 280 kts 283°
2026-04-20 01:41 -30.93242 150.54000 15133 ft 267 kts 268°
2026-04-20 01:42 -30.93439 150.51872 14568 ft 263 kts 253°
2026-04-20 01:42 -30.94111 150.49927 14059 ft 257 kts 238°
2026-04-20 01:42 -30.95181 150.48320 13502 ft 253 kts 223°
2026-04-20 01:42 -30.96589 150.47112 12936 ft 251 kts 208°
2026-04-20 01:43 -30.98209 150.46414 12385 ft 242 kts 193°
2026-04-20 01:43 -30.99832 150.46233 11121 ft 239 kts 179°
2026-04-20 01:43 -31.01507 150.46393 9884 ft 241 kts 176°
2026-04-20 01:43 -31.03152 150.46514 8748 ft 234 kts 178°
2026-04-20 01:44 -31.04768 150.46600 7598 ft 231 kts 178°
2026-04-20 01:44 -31.06357 150.46692 6530 ft 226 kts 176°
2026-04-20 01:44 -31.07927 150.46794 5450 ft 232 kts 175°
2026-04-20 01:44 -31.09586 150.46906 4843 ft 237 kts 174°
2026-04-20 01:45 -31.11130 150.47316 4828 ft 225 kts 159°
2026-04-20 01:45 -31.12508 150.48163 4836 ft 223 kts 145°
2026-04-20 01:45 -31.13597 150.49549 4792 ft 248 kts 119°
2026-04-20 01:45 -31.13975 150.51521 4797 ft 257 kts 91°
2026-04-20 01:46 -31.13408 150.53522 4818 ft 266 kts 60°
2026-04-20 01:46 -31.12138 150.55132 4894 ft 271 kts 43°
2026-04-20 01:46 -31.10633 150.56508 5047 ft 277 kts 39°
2026-04-20 01:46 -31.09007 150.57705 4860 ft 279 kts 33°
2026-04-20 01:47 -31.07378 150.58894 4844 ft 275 kts 36°
2026-04-20 01:47 -31.05834 150.60198 4830 ft 274 kts 40°
2026-04-20 01:47 -31.04321 150.61552 4843 ft 276 kts 40°
2026-04-20 01:47 -31.02782 150.62874 4851 ft 277 kts 38°
2026-04-20 01:48 -31.01229 150.64175 4841 ft 277 kts 38°
2026-04-20 01:48 -30.99681 150.65486 4852 ft 274 kts 39°
2026-04-20 01:48 -30.98284 150.66980 4784 ft 272 kts 57°
2026-04-20 01:48 -30.97606 150.68936 4833 ft 248 kts 82°
2026-04-20 01:49 -30.97623 150.70830 4540 ft 229 kts 104°
2026-04-20 01:49 -30.98227 150.72494 4163 ft 219 kts 124°
2026-04-20 01:49 -30.99190 150.73792 3867 ft 204 kts 135°
2026-04-20 01:49 -31.00134 150.74968 3555 ft 194 kts 133°
2026-04-20 01:50 -31.01017 150.76081 3285 ft 181 kts 134°
2026-04-20 01:50 -31.01854 150.77128 3034 ft 171 kts 134°
2026-04-20 01:50 -31.02643 150.78106 2773 ft 162 kts 135°
2026-04-20 01:50 -31.03375 150.78992 2611 ft 145 kts 135°
2026-04-20 01:51 -31.04074 150.79822 2329 ft 143 kts 135°
2026-04-20 01:51 -31.04709 150.80708 2075 ft 139 kts 132°
2026-04-20 01:51 -31.05331 150.81525 1868 ft 133 kts 133°
2026-04-20 01:51 -31.05961 150.82289 1613 ft 129 kts 135°
2026-04-20 01:52 -31.06566 150.83041 1478 ft 127 kts 136°
2026-04-20 01:52 -31.07160 150.83766 1349 ft 119 kts 136°
2026-04-20 01:52 -31.07690 150.84427 1337 ft 100 kts 133°
2026-04-20 01:52 -31.08040 150.84865 1342 ft 46 kts 133°
2026-04-20 01:53 -31.08182 150.85040 1343 ft 14 kts 133°
2026-04-20 01:53 -31.08252 150.85059 1341 ft 10 kts 219°
2026-04-20 01:53 -31.08299 150.85009 1343 ft 8 kts 223°
2026-04-20 01:53 -31.08340 150.84972 1345 ft 6 kts 189°
2026-04-20 01:54 -31.08393 150.85023 1344 ft 10 kts 147°
2026-04-20 01:54 -31.08446 150.85021 1345 ft 6 kts 143°
2026-04-20 01:54 -31.08470 150.85053 1345 ft 0 kts 136°
2026-04-20 01:54 -31.08477 150.85062 1345 ft 8 kts 130°
2026-04-20 01:55 -31.08547 150.85149 1351 ft 12 kts 158°
2026-04-20 01:55 -31.08583 150.85116 1349 ft 5 kts 308°
2026-04-20 01:55 -31.08571 150.85100 1347 ft 0 kts 312°